Location: Elliott Island road
(38.3470°N, 75.9376°W)
Time: 05:01:16
(UTC-05:00)

Hubble Space Telescope - Visible Passes

Search period start: 23 January 2018 00:00
Search period end: 02 February 2018 00:00
Orbit: 537 x 541 km, 28.5° (Epoch: 22 January)

Date Brightness Start Highest point End Pass type
(mag) Time Alt. Az. Time Alt. Az. Time Alt. Az.
23 Jan 3.0 18:56:32 10° SSW 18:58:31 13° SSE 18:58:58 13° SSE visible
24 Jan 2.9 18:45:44 10° SSW 18:48:08 15° SSE 18:49:22 13° SSE visible
25 Jan 2.9 18:35:05 10° SSW 18:37:46 17° S 18:39:46 12° SE visible
26 Jan 2.8 18:24:32 10° SW 18:27:24 18° S 18:30:09 10° SE visible
26 Jan 3.7 20:04:58 10° SW 20:05:31 12° SW 20:05:31 12° SW visible
27 Jan 2.8 18:14:03 10° SW 18:17:02 19° S 18:20:02 10° SE visible
27 Jan 3.4 19:54:43 10° SW 19:55:55 15° SW 19:55:55 15° SW visible
28 Jan 2.8 18:03:37 10° SW 18:06:42 20° S 18:09:45 10° SE visible
28 Jan 3.2 19:44:31 10° SW 19:46:21 16° SSW 19:46:21 16° SSW visible
29 Jan 2.8 17:53:14 10° SW 17:56:20 21° S 17:59:26 10° SE visible
29 Jan 3.1 19:34:23 10° SW 19:36:50 16° SSW 19:36:50 16° SSW visible
30 Jan 3.2 19:24:21 10° SW 19:26:33 14° SSW 19:27:23 13° S visible
31 Jan 3.4 19:14:30 10° SW 19:16:10 12° SSW 19:17:49 10° S visible
01 Feb 3.6 19:05:17 10° SSW 19:05:46 10° SSW 19:06:15 10° SSW visible
